Showing default

KUIPER-00173, 65786

Orbit data source: Space-Track

KUIPER-00173, 65786 is a payload satellite owned by Kuiper Systems (US) in LEO that was launched on Thu, 25 Sep 2025 UTC via an ATLAS V 551 launch vehicle from the Air Force Eastern Test Range (AFETR). Payload-class satellites include a variety of spacecraft equipped with specific instruments for various scientific and technological missions. These include communications satellites like Starlink; space stations such as the ISS; scientific satellites like the Hubble; Earth observation satellites from companies like Planet Labs, Umbra, and HawkEye 360; GPS; miniature CubeSats for education and research; and military/defense satellites.

Loading next visibility...
Identifier
65786, 2025-217AA
Orbit
LEO
Country
Flag of USUS
Related business
Manufacturer
Kuiper Systems
Mission
Operational Commercial Communications
Bus & Motor
KUIPER, Unknown motor
Mass
~490 kg wet, ~490 kg dry
Launch date (UTC)
2025-09-25 (9 months ago)
Launch vehicle
ATLAS V 551
Launch site
Air Force Eastern Test Range (AFETR)
Object type
Payload
Rocket body
Debris
Shape & HBR
Box + 2 Pan, 3.4 m
Radar Cross Section
2.326 m², Large (>1 m²)

Expand to show TLE details & history
Last TLE update: 1 day ago

TLE from 1 day ago
0 KUIPER-00173
1 65786U 25217AA  26170.66411373  .00001793  00000-0  26411-3 0  9993
2 65786  51.9014 302.1819 0000416  99.6682 260.4327 14.79936789 40112
Epoch: 2026-06-19T15:56Z
TLE epoch observation values (Epoch: 2026-06-19T15:56:19.426Z)
Latitude
-0.00004°
Longitude
155.21108°
Altitude
630.319 km
Speed
7.544 km/s
True Right ascension
20h 08m 43s
True Declination
0° 00' 00"
Sunlit
Object was in full shadow at epoch
Visualization orbit readout
Latitude
Unknown
Longitude
Unknown
Altitude
Unknown
Speed
Unknown
Apparent Right ascension
Unknown
Apparent Declination
Unknown
Sunlit
N/A
Visualization observer readout
Local Sidereal Time
07:12:20
Azimuth
Unknown
Elevation
Unknown
Doppler factor
Unknown
Orbital elements
Apogee altitude
630.266 km
Perigee altitude
629.683 km
Semi-major axis
7,008.112 km
Eccentricity
0.00004
Inclination
51.9014°
RAAN
302.1819°
Arg. of periapsis
99.6682°
True anomaly
260.428°
Mean anomaly
260.4327°
Eccentric anomaly
260.43035°
Mean motion
3.69949 °/min
Orbital period
97.31 mins
BSTAR
0.00026411
Loading maneuver chart data...
Computing Atmospheric mass density...
Loading historical data...
Loading historical data...
Loading historical data...
Loading historical data...
Loading historical data...
Loading historical data...
Loading historical data...

Documentation

Showing up to 5 results
|